Вернуться в каталог

DELTA 1 DEB

АктивенPO
NORAD 21972·DEBRIS·🇺🇸 United States

Запущен Jun 12, 1975 с Vandenberg Space Force Base

Loading…

Ближайшие Пролёты (ближайшие 24 часа)

TLE

СвежийSource: Space-Track

Эпоха: Sep 14, 2026, 00:22 UTC

1 21972U 75052JW  26257.01592013  .00000110  00000-0  42791-3 0  9991
2 21972  99.5927  91.2507 0334603 253.5413 264.3668 12.92146692625875

Отслеживайте DELTA 1 DEB в реальном времени с AllMySat

Download on the App Store